Wind_Speed
12 11 11 11 11 11 11 11 10 10 9 9 10 10 9 8 8 8 8 7 6 6 5 5 5 5 5 5 4 4 4 3 3 2 2 2 2 3 3 3 4 4 5
13 13 12 13 12 12 12 12 12 12 11 11 12 11 11 10 10 9 9 9 8 7 7 7 7 6 6 6 6 5 5 4 4 3 3 3 3 4 4 4 5 5 6
15 15 14 14 14 14 14 14 14 13 13 13 13 13 12 12 12 11 11 10 10 9 9 8 8 8 7 7 7 7 6 6 5 5 5 5 5 5 5 6 6 7 7
17 17 16 16 16 15 15 15 15 15 14 15 15 15 14 14 14 13 13 12 12 11 11 10 10 10 9 9 8 8 8 7 7 6 7 7 7 7 7 7 8 8 8
20 19 18 17 18 17 17 17 17 17 16 16 16 16 16 15 15 15 14 14 14 13 13 12 12 11 11 10 10 10 10 9 9 8 8 8 8 9 9 9 10 9 9
21 21 20 19 19 20 19 19 19 18 18 17 17 18 18 17 16 16 16 15 15 15 14 14 14 13 12 12 12 12 12 11 11 11 11 10 10 11 11 11 11 11 11
23 22 22 22 21 21 21 20 20 20 19 19 19 19 19 19 19 18 18 17 17 17 16 16 15 15 15 14 14 14 14 14 13 13 12 12 12 12 13 12 12 12 12
26 24 24 24 23 22 22 22 21 21 21 20 20 20 20 20 20 20 19 19 19 19 18 18 17 17 16 16 16 15 16 16 15 15 14 14 14 14 14 14 14 14 14
28 27 26 26 26 25 24 24 23 23 22 22 22 22 22 21 21 21 21 21 21 21 20 20 19 19 18 18 18 17 17 17 17 16 16 16 16 16 16 16 15 15 15
30 29 29 29 28 27 26 25 25 25 25 24 24 24 23 23 23 23 23 22 22 22 22 22 21 21 20 20 20 19 19 19 19 18 17 18 18 18 18 17 17 17 17
32 31 30 30 30 29 28 27 27 26 26 26 26 26 25 25 25 25 25 24 24 24 24 23 23 23 22 22 21 21 20 20 20 20 20 19 19 19 19 19 19 18 18
32 32 31 31 30 30 29 29 29 28 28 28 28 28 27 27 27 26 26 26 26 26 25 25 25 24 24 24 23 23 22 22 22 22 22 21 21 21 21 21 20 20 20
34 34 33 32 31 31 30 30 30 30 30 30 29 29 29 28 28 28 27 27 27 27 27 27 26 26 26 26 25 25 24 24 24 24 23 23 23 23 23 23 22 22 22
36 35 35 34 34 33 32 32 32 32 32 31 31 31 31 30 30 29 29 29 29 29 29 29 29 28 28 27 27 26 26 26 26 26 26 25 25 25 25 24 24 24 24
38 37 37 36 36 35 35 34 34 34 34 33 33 33 32 32 31 31 30 30 30 30 31 30 30 30 29 29 28 28 28 28 28 28 28 27 27 27 26 26 25 26 26
39 39 39 39 38 38 37 37 36 35 36 36 35 34 34 34 33 33 33 32 32 32 33 32 32 32 31 30 31 30 30 30 30 31 30 29 29 28 28 27 27 27 27
41 41 41 41 41 40 39 39 38 37 37 38 37 36 36 35 35 35 35 34 34 34 34 34 34 34 33 33 32 33 32 31 32 32 32 31 31 31 30 29 29 29 28
43 43 43 43 43 43 42 41 41 41 40 40 39 39 38 37 36 36 37 36 36 36 36 36 36 36 36 35 34 34 34 34 34 34 34 33 33 32 32 32 31 31 30
44 45 44 44 44 44 44 43 43 43 43 42 41 40 40 39 38 38 38 38 38 38 38 38 38 38 38 37 37 36 36 35 35 35 35 35 35 34 33 33 33 33 32
46 46 46 45 46 46 46 45 45 44 44 43 42 41 41 41 40 39 39 39 39 39 39 39 39 39 39 39 39 38 37 37 36 36 36 36 36 36 35 35 35 34 34
48 48 48 47 47 47 47 47 46 46 45 44 43 43 42 42 41 41 41 40 40 39 39 39 39 40 40 40 39 39 38 37 38 38 38 37 37 37 37 37 37 36 36
49 49 49 49 49 49 48 48 48 48 47 46 46 45 44 44 43 43 42 42 41 41 40 40 40 40 40 40 40 40 40 39 39 39 39 39 39 39 39 38 38 38 38
48 48 49 49 50 50 50 50 50 50 48 48 47 47 46 46 45 44 43 43 43 43 42 41 41 41 41 41 41 41 41 40 39 39 39 39 40 40 40 40 40 40 40
47 48 49 49 50 50 51 51 50 50 50 48 47 47 47 47 46 45 44 45 44 44 43 43 42 42 42 42 41 41 41 41 41 40 39 39 39 40 41 41 41 41 42
46 48 49 50 50 51 51 51 51 51 51 49 49 48 48 48 48 47 47 46 45 44 44 44 43 43 43 43 43 43 43 42 42 42 40 39 40 40 41 41 42 42 43
44 46 48 49 51 52 52 52 52 51 51 51 51 50 49 49 49 47 47 47 47 46 45 45 44 44 44 44 44 43 43 43 43 43 42 41 41 41 41 42 42 43 44
Wind_Direction
249 249 248 247 243 238 237 240 246 249 251 248 241 240 241 243 245 248 250 248 246 246 247 241 241 243 244 243 240 236 232 231 243 252 262 281 298 308 317 326 331 334 338
248 248 249 247 244 241 239 241 246 250 253 251 248 246 244 246 248 249 249 248 248 248 249 250 248 247 249 248 245 242 240 240 244 250 257 272 284 294 301 308 316 319 322
250 248 249 246 245 246 242 242 245 247 249 251 249 247 248 250 251 251 250 250 251 250 250 252 250 248 249 249 248 247 248 247 249 253 261 270 280 288 295 301 304 307 310
250 249 250 246 245 245 245 244 245 247 250 252 249 248 249 252 254 253 252 253 253 253 252 253 253 251 249 249 251 250 249 249 252 255 262 270 279 285 290 296 300 302 304
250 249 248 247 246 247 248 248 248 249 251 253 252 251 250 252 254 254 254 254 255 255 254 252 253 253 251 250 250 251 250 252 256 258 263 269 276 283 286 292 296 298 300
249 250 248 249 251 249 248 250 251 251 251 252 254 254 252 252 253 255 254 254 255 256 256 254 253 253 253 253 252 252 252 254 258 260 264 269 274 280 284 288 291 293 296
248 250 251 251 252 250 249 250 250 250 251 252 252 254 254 253 253 254 255 254 255 256 257 256 254 253 254 254 255 255 254 256 259 262 266 268 273 277 282 284 287 290 293
247 248 251 252 251 250 250 249 251 251 251 253 253 253 255 254 253 253 255 256 256 256 257 257 256 254 254 254 255 257 257 256 258 262 265 268 272 276 280 282 284 287 290
247 248 249 251 251 252 250 251 252 253 253 253 254 255 255 256 255 255 255 256 256 256 256 256 256 255 254 255 256 257 258 259 260 262 264 267 272 276 278 280 282 285 287
246 248 249 250 251 251 250 250 251 252 252 253 253 255 256 257 257 257 256 256 255 255 255 255 256 255 256 257 258 258 258 260 261 263 265 267 270 274 277 279 279 283 285
248 248 249 251 250 250 250 251 251 252 252 252 253 255 256 257 257 256 255 255 255 254 255 255 255 256 257 258 258 258 258 259 261 263 265 266 269 272 275 277 277 279 282
248 248 249 249 249 249 249 250 251 252 252 253 253 254 256 256 257 256 255 255 255 254 255 255 256 256 257 258 258 259 259 260 261 263 264 266 269 272 274 275 276 277 279
249 249 249 249 249 249 250 250 250 251 252 253 254 254 255 256 256 256 256 255 255 255 255 255 257 258 258 257 258 260 261 260 261 263 264 267 269 271 273 274 275 276 277
248 249 249 249 250 250 250 250 250 251 252 253 254 254 255 256 256 256 256 255 256 256 256 255 257 258 259 259 259 260 261 262 262 262 264 266 269 270 271 273 274 276 276
249 249 249 250 250 250 250 250 250 250 252 253 254 253 254 255 256 256 255 255 256 256 256 257 256 257 259 260 260 261 262 262 263 263 263 265 267 268 269 271 273 275 276
249 248 248 249 250 250 250 250 251 251 252 253 254 254 254 254 254 254 255 255 256 256 256 256 257 257 259 261 261 261 263 263 264 264 264 265 265 266 268 270 272 273 274
250 248 249 249 250 250 250 251 252 253 253 254 254 254 254 255 254 254 254 254 255 255 256 256 257 257 258 260 261 261 263 264 265 266 264 264 264 265 267 269 270 271 273
250 250 250 250 250 251 251 252 252 253 254 255 254 253 254 255 255 255 255 254 255 255 255 255 256 257 259 260 262 263 265 265 265 265 265 264 264 265 266 267 268 270 272
250 250 250 251 251 251 252 253 252 252 252 253 253 254 254 255 255 256 255 255 255 256 256 256 256 257 259 260 262 263 266 267 265 265 265 264 264 265 266 266 268 269 271
251 250 250 251 251 251 251 252 252 252 252 252 254 254 254 255 254 255 256 256 256 257 258 258 257 258 259 260 261 262 264 266 264 264 264 265 266 266 266 266 267 268 270
251 252 251 251 251 251 251 251 251 251 252 252 254 254 253 254 254 255 256 257 257 257 258 258 258 259 259 260 261 262 263 264 263 263 264 265 266 265 265 267 267 268 269
252 251 251 250 250 251 251 250 250 251 250 250 252 253 252 252 253 255 256 256 257 257 258 258 258 259 259 260 261 262 263 264 264 264 263 264 265 265 265 266 267 268 269
252 251 250 249 249 249 250 250 250 250 250 250 251 252 252 252 252 254 255 255 256 257 257 258 258 258 260 261 261 262 262 262 262 263 264 264 264 265 266 266 267 268 269
252 252 251 250 249 249 249 249 249 249 249 250 251 251 251 250 251 252 253 255 256 256 256 256 257 258 260 261 262 263 262 261 261 261 263 264 265 266 266 266 267 267 269
252 251 251 250 250 249 248 248 249 249 248 248 249 250 250 249 250 252 252 254 254 255 255 255 256 259 260 261 263 264 263 262 262 263 262 263 265 266 267 267 268 269 270
253 252 252 251 251 250 249 248 248 248 248 248 249 250 249 249 251 252 253 253 254 254 255 255 257 258 260 261 262 264 264 264 263 263 262 263 264 265 266 267 268 270 272
Height
5850 5851 5852 5852 5853 5853 5854 5855 5855 5856 5856 5857 5857 5858 5859 5859 5860 5860 5861 5861 5861 5861 5861 5861 5862 5862 5862 5862 5862 5862 5862 5862 5862 5862 5861 5861 5861 5860 5860 5860 5859 5858 5858
5848 5849 5850 5850 5851 5851 5852 5853 5854 5854 5855 5855 5856 5856 5857 5858 5858 5859 5859 5859 5859 5860 5860 5860 5860 5860 5860 5861 5860 5861 5861 5861 5861 5861 5861 5860 5860 5860 5859 5859 5858 5858 5857
5845 5846 5847 5848 5849 5849 5850 5851 5851 5852 5853 5853 5854 5854 5855 5856 5856 5857 5857 5858 5858 5858 5858 5858 5858 5859 5859 5859 5859 5859 5859 5859 5860 5860 5859 5859 5859 5859 5858 5858 5857 5857 5856
5841 5843 5844 5845 5846 5846 5847 5848 5849 5850 5850 5851 5852 5852 5853 5854 5854 5855 5855 5855 5856 5856 5856 5856 5857 5857 5857 5857 5858 5858 5858 5858 5858 5858 5858 5858 5858 5858 5857 5857 5856 5855 5855
5838 5839 5840 5842 5843 5843 5844 5845 5846 5847 5848 5848 5849 5850 5850 5851 5852 5852 5853 5853 5853 5854 5854 5854 5854 5855 5855 5855 5856 5856 5856 5856 5857 5857 5857 5856 5856 5856 5855 5855 5854 5854 5853
5833 5835 5836 5838 5839 5840 5841 5842 5843 5844 5845 5845 5846 5847 5848 5848 5849 5849 5850 5850 5850 5851 5851 5851 5852 5852 5853 5853 5853 5854 5854 5854 5854 5854 5854 5854 5854 5854 5854 5853 5852 5852 5851
5829 5830 5832 5834 5835 5836 5837 5838 5839 5840 5841 5842 5843 5843 5844 5845 5845 5846 5846 5847 5847 5847 5848 5848 5849 5849 5850 5850 5851 5851 5851 5851 5852 5852 5852 5852 5852 5851 5851 5851 5850 5849 5849
5824 5826 5827 5829 5830 5832 5833 5834 5835 5836 5837 5838 5839 5840 5840 5841 5841 5842 5842 5843 5843 5844 5844 5845 5845 5846 5846 5847 5847 5848 5848 5848 5849 5849 5849 5849 5849 5848 5848 5848 5847 5847 5846
5818 5820 5822 5824 5825 5827 5828 5829 5830 5831 5833 5834 5835 5835 5836 5837 5837 5837 5838 5838 5839 5839 5840 5840 5841 5842 5842 5843 5843 5844 5844 5845 5845 5845 5845 5846 5845 5845 5845 5844 5844 5843 5843
5812 5814 5816 5818 5819 5821 5823 5824 5825 5826 5827 5829 5830 5830 5831 5832 5832 5833 5833 5833 5834 5835 5835 5836 5836 5837 5838 5839 5839 5840 5840 5840 5841 5841 5842 5842 5842 5841 5841 5841 5840 5840 5839
5806 5808 5810 5811 5813 5815 5817 5818 5820 5821 5822 5823 5824 5825 5826 5827 5827 5827 5828 5829 5829 5830 5830 5831 5832 5832 5833 5834 5835 5835 5836 5836 5837 5837 5837 5837 5838 5837 5837 5837 5836 5836 5835
5799 5801 5803 5805 5807 5808 5810 5812 5813 5815 5816 5817 5818 5819 5820 5821 5821 5822 5823 5823 5824 5825 5825 5826 5827 5828 5828 5829 5829 5830 5831 5831 5832 5833 5833 5833 5833 5833 5833 5832 5832 5832 5831
5792 5794 5795 5797 5799 5801 5803 5805 5806 5808 5809 5811 5812 5813 5814 5814 5815 5816 5817 5818 5819 5819 5820 5821 5822 5822 5823 5824 5824 5825 5825 5826 5827 5827 5828 5828 5828 5828 5828 5827 5827 5827 5826
5783 5785 5787 5789 5792 5794 5796 5798 5799 5801 5802 5804 5805 5806 5807 5808 5809 5810 5811 5812 5812 5813 5814 5815 5816 5817 5817 5818 5819 5819 5820 5820 5821 5822 5822 5823 5823 5823 5823 5822 5822 5822 5821
5775 5777 5780 5782 5784 5786 5788 5790 5791 5793 5794 5796 5797 5798 5800 5801 5802 5803 5804 5805 5806 5807 5808 5808 5810 5811 5811 5812 5813 5814 5814 5815 5815 5815 5816 5816 5817 5817 5817 5817 5816 5816 5816
5766 5768 5771 5773 5775 5777 5779 5781 5783 5784 5786 5787 5789 5790 5792 5793 5794 5796 5797 5798 5799 5800 5801 5802 5803 5804 5805 5806 5806 5807 5808 5808 5809 5809 5810 5810 5810 5811 5811 5811 5811 5810 5810
5757 5759 5761 5764 5765 5768 5770 5772 5774 5776 5777 5779 5780 5782 5783 5785 5786 5788 5789 5790 5792 5792 5794 5795 5796 5797 5798 5799 5800 5800 5801 5801 5802 5802 5803 5803 5804 5804 5804 5805 5804 5804 5803
5746 5749 5751 5753 5756 5758 5760 5763 5764 5766 5768 5769 5771 5773 5774 5776 5778 5779 5781 5782 5783 5784 5785 5787 5788 5789 5790 5791 5792 5793 5793 5794 5794 5795 5795 5796 5796 5797 5797 5797 5797 5797 5796
5736 5738 5741 5743 5745 5747 5750 5752 5754 5756 5758 5759 5761 5763 5765 5766 5768 5770 5771 5773 5774 5775 5777 5778 5780 5781 5782 5783 5784 5785 5785 5786 5786 5787 5788 5788 5789 5789 5789 5790 5790 5789 5789
5724 5727 5729 5732 5734 5736 5739 5741 5743 5745 5747 5749 5751 5753 5755 5757 5759 5760 5762 5764 5765 5766 5768 5769 5771 5772 5773 5774 5775 5776 5777 5778 5778 5779 5779 5780 5780 5781 5781 5782 5782 5782 5781
5712 5714 5717 5720 5722 5724 5726 5729 5732 5734 5736 5739 5741 5743 5745 5747 5749 5751 5753 5754 5756 5757 5759 5760 5761 5762 5763 5765 5766 5767 5768 5769 5770 5770 5771 5772 5772 5772 5773 5773 5773 5773 5773
5699 5701 5703 5706 5709 5712 5714 5717 5720 5722 5725 5727 5730 5732 5735 5737 5739 5741 5743 5745 5746 5748 5749 5750 5752 5753 5754 5755 5756 5757 5758 5760 5760 5761 5762 5763 5763 5764 5764 5764 5764 5764 5764
5686 5688 5690 5693 5695 5699 5701 5704 5707 5709 5712 5715 5718 5721 5724 5726 5728 5730 5733 5735 5736 5738 5739 5740 5742 5743 5744 5745 5746 5747 5749 5750 5751 5752 5752 5753 5754 5754 5755 5755 5755 5755 5754
5672 5674 5677 5679 5682 5685 5688 5691 5694 5697 5701 5704 5707 5709 5712 5714 5717 5719 5721 5723 5725 5727 5728 5730 5731 5733 5734 5735 5736 5737 5739 5740 5741 5742 5744 5744 5744 5744 5744 5745 5745 5745 5745
5659 5661 5664 5666 5668 5671 5675 5678 5681 5685 5688 5692 5694 5697 5700 5703 5705 5707 5710 5712 5714 5716 5718 5719 5721 5722 5724 5725 5726 5727 5728 5729 5730 5732 5734 5735 5735 5735 5734 5735 5735 5734 5734
5647 5648 5650 5652 5655 5658 5661 5664 5668 5671 5675 5679 5682 5685 5687 5690 5693 5695 5698 5700 5702 5704 5706 5708 5710 5712 5713 5715 5716 5717 5718 5719 5720 5721 5722 5723 5724 5725 5724 5724 5724 5724 5724